FENGYUN 1C DEB

Satellite information

Favourite Embed

Satellite Type and Status

DEBRISIN ORBIT

Key statistics

Satellite FENGYUN 1C DEB at a glance.

Uptime

9615

Days in orbit

Revolutions

≈ 13.8

Per day

Orbit

SSO

Sun Synchronous Orbit

Inclination

99.8

Latest

Satellite identification and parameters

Extended collection of information and parameters for FENGYUN 1C DEB.

Object identification

Identified? True

Debris? True

Object name: FENGYUN 1C DEB

International designator: 1999-025DMG

Object number (NORAD): 35152

Object ID (CCSDS): 35152

Country: PEOPLES REPUBLIC OF CHINA (PRC)

Current information (Y/N): Y

RCS size: SMALL

Orbital parameters

Period: 104.634 minutes

Inclination: 99.821 deg

SMA: 7355.441 km

Apoapsis: 1120.17 km

Periapsis: 834.442 km

RAAN: 61.5961 deg

Eccentricy: 0.01942292

Argument of periapsis: 285.9403 deg

Mean anomaly: 72.0423 deg

Mean motion: 13.76225772 rev/day

Mean motion (dot): 0.00000623 rev/day2

B* drag term: 0.00060055911 1/REarth

Two-line elements (TLE)

Creation date: Aug. 30, 2025, 11:24 a.m.

Reference frame: TEME

Reference center: EARTH

Epoch: Aug. 30, 2025, 5:25 a.m. UTC

TLE line 0: 0 FENGYUN 1C DEB

TLE line 1: 1 35152U 99025DMG 25242.22585845 .00000623 00000-0 60056-3 0 9996

TLE line 2: 2 35152 99.8210 61.5961 0194229 285.9403 72.0423 13.76225772607556

Live tracking on map

Real-time ground track for satellite FENGYUN 1C DEB.

In-orbit conjunctions

A list of the most updated potential collisions computed for object FENGYUN 1C DEB.

Target Orbit TCA Probability of collision Miss distance Type
COSMOS 970 DEB LEO 2025-08-29 12:16:26 0.00011247 162.0 (m) DEBRIS
SL-16 R/B LEO 2025-06-09 19:53:52 0.0001566715 129.0 (m) ROCKET BODY

Associated space launch

Chinese polar orbiting meteorological satellite

FENGYUN 1C DEB was lifted into orbit during the mission ‘Long March 4B | Feng Yun 1C’, on board a Long March 4B space rocket.

The launch took place on May 10, 1999, 1:33 a.m. from Launch Complex 7.

For more information about the launch, click the button.

Launch to space Long March 4B | Feng Yun 1C
Long March 4B | Feng Yun 1C

Agency: N/A

Status: Launch Successful

Launch date: May 10, 1999, 1:33 a.m. UTC

Rocket: Long March 4B

Launch pad: Launch Complex 7

Location: Taiyuan Satellite Launch Center, People's Republic of China

...

Latest news about this satellite

There are no fresh news available about this satellite. Check back as we update our databases every day.


Newsletter sign-up

Weekly statistics, charts and insights to help you stay on top of the space industry.